D7126 Weather Reports


time (UTC)temp
C
wind
direction
speed
KPH
gust
KPH
rain 1hr
cm
rain 24hr
cm
rain mn
cm
humidity
%
barometer
mb
20260503214202 15 344 8.0 11.3 0.00 0.00 0.00 81 1009.5
20260503213631 15 343 9.7 19.3 0.00 0.00 0.00 81 1009.4
20260503213130 15 325 11.3 19.3 0.00 0.00 0.00 81 1009.4
20260503212631 15 323 11.3 22.5 0.00 0.00 0.00 81 1009.3
20260503212604 15 332 11.3 22.5 0.00 0.00 0.00 82 1009.2
20260503211837 15 5 8.0 14.5 0.00 0.00 0.00 82 1009.2
20260503211104 15 343 8.0 16.1 0.00 0.00 0.00 82 1009.2
20260503210604 15 315 8.0 16.1 0.00 0.00 0.00 82 1009.2
20260503210338 15 0 9.7 16.1 0.00 0.00 0.00 82 1009.1
20260503205604 15 338 9.7 16.1 0.00 0.00 0.00 82 1009.0
20260503205109 15 337 8.0 11.3 0.00 0.00 0.00 82 1008.9
20260503204537 15 333 8.0 14.5 0.00 0.00 0.00 82 1008.9
20260503204039 15 333 8.0 14.5 0.00 0.00 0.00 82 1008.9
20260503203509 15 340 6.4 14.5 0.00 0.00 0.00 82 1008.8
20260503203236 15 351 6.4 14.5 0.00 0.00 0.00 82 1008.8
20260503202507 15 336 6.4 14.5 0.00 0.00 0.00 82 1008.7
20260503202005 15 355 8.0 12.9 0.00 0.00 0.00 82 1008.6
20260503201505 15 329 8.0 16.1 0.00 0.00 0.00 82 1008.6
20260503201005 15 337 9.7 16.1 0.00 0.00 0.00 82 1008.5
20260503200506 15 325 8.0 17.7 0.00 0.00 0.00 82 1008.4
20260503200006 15 322 8.0 17.7 0.00 0.00 0.00 82 1008.4
20260503195736 15 346 8.0 16.1 0.00 0.00 0.00 82 1008.3
20260503195005 15 333 8.0 11.3 0.00 0.00 0.00 81 1008.3
20260503194507 15 330 9.7 20.9 0.00 0.00 0.00 81 1008.2
20260503194007 15 332 9.7 20.9 0.00 0.00 0.00 81 1008.2
20260503193744 15 331 9.7 16.1 0.00 0.00 0.00 80 1008.2
20260503193008 15 339 9.7 16.1 0.00 0.00 0.00 79 1008.2
20260503192504 15 333 11.3 19.3 0.00 0.00 0.00 79 1008.1
20260503192047 15 341 11.3 19.3 0.00 0.00 0.00 79 1007.9
20260503192039 15 335 11.3 19.3 0.00 0.00 0.00 79 1007.9
20260503191749 16 338 11.3 19.3 0.00 0.00 0.00 79 1007.9
20260503190510 16 315 9.7 16.1 0.00 0.00 0.00 79 1007.8
20260503190241 16 328 11.3 0.0 0.00 0.00 0.00 79 1007.9
20260503190108 16 335 12.9 24.1 0.00 0.00 0.00 79 1007.8
20260503185213 16 322 11.3 24.1 0.00 0.00 0.00 79 1007.8
20260503184936 16 316 12.9 24.1 0.00 0.00 0.00 79 1013.2
20260503184207 16 313 14.5 24.1 0.00 0.00 0.00 80 1007.8
20260503183636 16 355 14.5 22.5 0.00 0.00 0.00 80 1007.7
20260503183131 16 326 14.5 22.5 0.00 0.00 0.00 80 1007.7
20260503182620 16 321 14.5 24.1 0.00 0.00 0.00 80 1007.7
20260503182106 16 333 14.5 24.1 0.00 0.00 0.00 79 1007.7
20260503181603 16 323 12.9 22.5 0.00 0.00 0.00 81 1007.6
20260503181104 16 333 11.3 22.5 0.00 0.00 0.00 81 1007.7
20260503180604 16 337 9.7 22.5 0.00 0.00 0.00 82 1007.7
20260503175544 16 324 12.9 22.5 0.00 0.00 0.00 83 1013.1
20260503175031 16 308 12.9 22.5 0.00 0.00 0.00 82 1007.8
20260503174530 16 315 14.5 20.9 0.00 0.00 0.00 82 1007.8
20260503174031 16 291 14.5 20.9 0.00 0.00 0.00 82 1007.8
20260503174008 17 313 14.5 22.5 0.00 0.00 0.00 82 1007.8
20260503173003 17 315 12.9 22.5 0.00 0.00 0.00 81 1007.8
20260503172504 17 306 9.7 19.3 0.00 0.00 0.00 84 1007.9
20260503172004 16 337 11.3 19.3 0.00 0.00 0.00 83 1007.9
20260503171502 17 324 11.3 20.9 0.00 0.00 0.00 81 1007.9
20260503170931 17 328 11.3 20.9 0.00 0.00 0.00 80 1007.9
20260503170432 17 313 11.3 19.3 0.00 0.00 0.00 82 1007.9
20260503160203 17 342 14.5 24.1 0.00 0.00 0.00 81 1007.8
20260503150933 18 326 14.5 25.7 0.00 0.00 0.00 81 1008.0
20260503150207 17 316 14.5 24.1 0.00 0.00 0.00 80 1008.1
20260503140103 17 282 11.3 20.9 0.00 0.00 0.00 85 1008.3
20260503130938 17 275 9.7 19.3 0.00 0.00 0.00 83 1008.2
20260503130430 17 320 11.3 22.5 0.00 0.00 0.00 82 1008.2
20260503110236 16 246 16.1 25.7 0.00 0.03 0.00 85 1008.5
20260503081231 15 252 11.3 11.3 0.00 0.25 0.00 88 1008.1
20260503080705 15 234 11.3 19.3 0.00 0.25 0.00 88 1008.1
20260503080209 15 263 8.0 19.3 0.00 0.28 0.00 89 1008.1
20260503072705 14 24 0.0 1.6 0.00 0.41 0.00 91 1008.0
20260503072207 13 24 0.0 1.6 0.00 0.43 0.00 92 1008.0
20260503071706 13 24 0.0 0.0 0.00 0.43 0.00 91 1008.0
20260503071203 13 24 0.0 0.0 0.00 0.43 0.00 91 1007.9
20260503070707 13 18 0.0 0.0 0.00 0.43 0.00 91 1007.9
20260503070203 13 18 0.0 0.0 0.00 0.43 0.00 91 1007.8
20260503060137 12 335 0.0 1.6 0.00 0.51 0.00 91 1007.6
20260503055109 12 335 0.0 0.0 0.00 0.51 0.00 90 1007.6
20260503054604 12 335 0.0 1.6 0.00 0.51 0.00 91 1007.5
20260503054103 12 335 0.0 1.6 0.00 0.51 0.00 90 1007.5
20260503053603 12 322 0.0 0.0 0.00 0.51 0.00 90 1007.5
20260503053103 13 322 0.0 0.0 0.00 0.51 0.00 90 1007.5
20260503052603 13 303 0.0 0.0 0.00 0.51 0.00 90 1007.4
20260503052104 13 303 0.0 0.0 0.00 0.51 0.00 90 1007.4
20260503051845 13 303 0.0 0.0 0.00 0.51 0.00 90 1007.4
20260503051103 13 303 0.0 0.0 0.00 0.51 0.00 90 1007.4
20260503050603 13 303 0.0 0.0 0.00 0.51 0.00 90 1007.5
20260503045547 13 303 0.0 3.2 0.00 0.51 0.00 90 1007.5
20260503045318 13 313 0.0 3.2 0.00 0.51 0.00 90 1007.5
20260503045044 13 303 0.0 0.0 0.00 0.51 0.00 90 1007.5
20260503044030 13 313 0.0 3.2 0.00 0.51 0.00 90 1007.4
20260503043506 13 304 0.0 3.2 0.00 0.51 0.00 90 1007.4
20260503043003 13 304 0.0 3.2 0.00 0.51 0.00 90 1007.4
20260503042505 13 304 0.0 4.8 0.00 0.51 0.00 90 1007.4
20260503042004 13 304 0.0 4.8 0.00 0.51 0.00 90 1007.4
20260503041502 13 304 0.0 4.8 0.00 0.51 0.00 90 1007.4
20260503041002 13 304 0.0 4.8 0.00 0.51 0.00 90 1007.4
20260503040502 13 252 0.0 4.8 0.00 0.51 0.00 90 1007.5
20260503035946 13 252 0.0 4.8 0.00 0.51 0.00 90 1007.5
20260503035431 13 251 0.0 3.2 0.00 0.51 0.00 90 1007.4
20260503034933 13 250 1.6 1.6 0.00 0.51 0.00 90 1007.5
20260503034431 13 250 1.6 3.2 0.00 0.51 0.00 90 1007.5
20260503034157 13 250 1.6 3.2 0.00 0.51 0.00 90 1007.6
20260503033431 14 254 0.0 3.2 0.00 0.51 0.00 90 1007.6
20260503032903 14 257 0.0 1.6 0.00 0.53 0.00 90 1007.6
20260503032401 14 258 0.0 3.2 0.00 0.53 0.00 90 1007.6
20260503032108 14 259 0.0 0.0 0.00 0.53 0.00 90 1007.7
20260503031620 14 259 0.0 4.8 0.00 0.53 0.00 90 1007.7
20260503030806 14 259 1.6 4.8 0.00 0.53 0.00 90 1007.7
20260503030536 14 259 3.2 8.0 0.00 0.53 0.00 90 1007.8
20260503025804 14 259 3.2 8.0 0.00 0.53 0.00 90 1007.7
20260503025305 14 264 3.2 6.4 0.00 0.53 0.00 90 1007.9
20260503024805 14 247 3.2 4.8 0.00 0.53 0.00 90 1007.8
20260503024309 14 257 3.2 8.0 0.00 0.53 0.00 90 1007.9
20260503023804 14 259 1.6 8.0 0.00 0.53 0.00 90 1007.9
20260503023306 14 248 3.2 6.4 0.00 0.53 0.00 90 1007.9
20260503022804 14 248 3.2 6.4 0.00 0.53 0.00 91 1007.9
20260503022305 14 252 3.2 6.4 0.00 0.53 0.00 91 1007.8
20260503021804 15 242 4.8 4.8 0.00 0.53 0.00 91 1007.9
20260503021302 14 242 4.8 11.3 0.00 0.53 0.00 91 1007.9
20260503020731 14 245 4.8 11.3 0.00 0.53 0.00 91 1007.9
20260503020231 15 237 3.2 4.8 0.00 0.53 0.00 91 1008.0
20260503015704 14 244 3.2 9.7 0.00 0.53 0.00 91 1008.0
20260503015203 14 254 3.2 9.7 0.00 0.53 0.00 91 1008.0
20260503014705 14 263 4.8 12.9 0.00 0.53 0.00 91 1013.5
20260503014203 14 256 6.4 12.9 0.00 0.53 0.00 91 1008.1
20260503013705 14 257 6.4 16.1 0.00 0.53 0.00 91 1008.2
20260503013441 14 263 6.4 16.1 0.00 0.53 0.00 91 1008.2
20260503012704 14 277 3.2 14.5 0.00 0.53 0.00 91 1008.3
20260503012203 14 271 3.2 8.0 0.00 0.53 0.00 91 1008.3
20260503011703 14 266 3.2 8.0 0.00 0.53 0.00 91 1008.4
20260503011203 14 261 3.2 8.0 0.00 0.53 0.00 91 1008.3
20260503011140 14 267 3.2 8.0 0.00 0.53 0.00 91 1013.7
20260503010130 14 265 3.2 8.0 0.00 0.53 0.00 91 1008.3
20260503005631 14 251 3.2 6.4 0.00 0.53 0.00 91 1008.5
20260503005105 14 242 3.2 6.4 0.00 0.53 0.00 91 1008.5
20260503004836 14 243 3.2 6.4 0.00 0.53 0.00 91 1008.6
20260503004104 14 243 3.2 6.4 0.00 0.53 0.00 91 1008.6
20260503003604 14 241 3.2 6.4 0.00 0.53 0.00 91 1008.7
20260503003105 14 236 3.2 6.4 0.00 0.53 0.00 91 1008.6
20260503002620 14 257 3.2 8.0 0.00 0.53 0.00 91 1008.7
20260503002616 14 252 3.2 8.0 0.00 0.53 0.00 91 1008.6
20260503001603 14 245 3.2 4.8 0.00 0.53 0.00 91 1008.7
20260503001105 14 247 3.2 4.8 0.00 0.53 0.00 91 1008.8
20260503000605 14 249 3.2 4.8 0.00 0.53 0.00 91 1008.8
20260503000327 14 242 3.2 11.3 0.00 0.53 0.00 91 1008.8
20260502235603 14 247 3.2 11.3 0.00 0.53 0.00 91 1008.9
20260502235103 15 256 3.2 6.4 0.00 0.53 0.00 91 1008.9
20260502234603 15 243 3.2 6.4 0.00 0.53 0.00 91 1014.4
20260502234103 15 238 3.2 4.8 0.00 0.53 0.00 91 1009.0
20260502233532 15 238 3.2 6.4 0.00 0.53 0.00 91 1009.0
20260502233031 15 219 3.2 6.4 0.00 0.53 0.00 91 1009.0
20260502232504 15 227 3.2 8.0 0.00 0.53 0.00 91 1014.5
20260502232004 15 229 3.2 8.0 0.00 0.53 0.00 91 1009.2
20260502231504 15 253 4.8 11.3 0.00 0.53 0.00 91 1009.2
20260502231003 15 253 4.8 11.3 0.00 0.53 0.00 91 1009.2
20260502230503 15 254 6.4 9.7 0.00 0.53 0.00 91 1009.3
20260502230214 15 242 4.8 11.3 0.00 0.53 0.53 91 1009.3
20260502225431 15 220 4.8 11.3 0.00 0.53 0.53 91 1009.2
20260502224931 15 218 4.8 4.8 0.00 0.53 0.53 91 1009.3
20260502224417 15 225 6.4 9.7 0.00 0.53 0.53 91 1009.3
20260502224148 15 226 6.4 8.0 0.00 0.53 0.53 91 1009.3
20260502223350 15 229 6.4 11.3 0.00 0.53 0.53 92 1009.3
20260502222831 15 240 6.4 11.3 0.00 0.53 0.53 92 1009.3
20260502222607 15 241 6.4 8.0 0.00 0.53 0.53 92 1009.4
20260502221804 15 236 6.4 6.4 0.00 0.53 0.53 91 1009.4
20260502221304 15 219 6.4 9.7 0.00 0.53 0.53 91 1009.3
20260502220803 15 215 6.4 9.7 0.00 0.53 0.53 91 1009.3
20260502220231 15 225 8.0 12.9 0.00 0.53 0.53 91 1009.4
20260502215730 15 227 8.0 12.9 0.00 0.53 0.53 91 1009.4
20260502215231 15 205 8.0 9.7 0.00 0.53 0.53 91 1014.8
20260502214730 15 216 6.4 8.0 0.00 0.53 0.53 91 1009.4
20260502214507 15 210 6.4 9.7 0.00 0.53 0.53 91 1009.4